EXPRESS-AM5

Last updated on Aug. 5, 2020, 5:33 a.m. UTC

1 39487U 13077A   20217.89781987 -.00000298  00000-0  00000-0 0  9998
2 39487   0.0213 233.1681 0000896 116.9819  67.0012  1.00267920 24875
UTC
Height (km)
Latitude
Longitude
Inclination
Orbital Period
UTC large
Height (km)
Speed (km/s)
/
Latitude / Longitude
Inclination (degrees)
Orbital Period (minutes)
Azimuth
Elevation
Range (km)
Doppler Factor
iOS Compass Heading
iOS Angle

Next 30 passes for location: Hong Kong

Rise time Rise Azimuth (degrees) Set time Set Azimuth (degrees) Duration Max altitude (degrees)

No matching passes for this satellites